Погода Алматы

Поиск расширенной информации на нашем сайте:

Полезная информация:

Новости сайта



02.01.2020
Опубликован Долгосрочный прогноз погоды по городам России и ближнего зарубежья на январь 2020 года.
Карты: Прогноз на январь и февраль 2020 года, Сравнение прогнозируемой аномалии приземной температуры воздуха на январь 2020 года по разным моделям.




Погода Алматы - сегодня

Время (UTC), дата Ветер
(°,м/с) 
Видим.   Явления Облачность Т
(°С)
Тd
(°С)
f(%) Тe
(°С)
Pmin
(гПа)
dP
(гПа)
Po
(мм)
O2
(г/м3)
Тmin Tmax R s Состояние
почвы
15 27.03.20 тихо ()   н/о    ясно 
+8 -3 46 +8  1020.4  0.3  691  271    +14.1       
18 27.03.20 тихо ()   н/о    10/0 верхняя 
[Ci fib]
+5.7 -2.5 56 +6  1021.1  -0.1  691  273    +14.1       
21 27.03.20 тихо ()   н/о    8/0 верхняя 
[Ci fib]
+5.4 -1.9 59 +5  1019.7  -1.4  690  273           
00 28.03.20 тихо () {03}  н/о    8/0 верхняя 
[Ci fib]
+5.1 -2 60 +5  1020  0.2  690  273           
03 28.03.20 тихо ()   20000 м    10/0 средняя, верхняя 
[Ac trans|Cs]
+9.7 -0.7 48 +10  1019.4  691  269           
06 28.03.20 тихо ()   20000 м    10/0 средняя, верхняя 
[Ac trans|Ci ing]
+13.7 +0.9 42 +14  1018.3  0.3  691  265  +4.9         
09 28.03.20 080 (В) 10 км    10/0 средняя 
[As op]
+14.3 +0.2 38 +16  1017  -1  691  264           
12 28.03.20 230 (ЮЗ) 10 км  слаб. ливневой дождь  10/10 600 м кучево-дожд. 
[Cb cap]
+11.4 +3.1 57 +13  1018.9  0.8  691  267           
15 28.03.20 260 (З) н/о  слаб. ливневой дождь  10/10 600 м кучево-дожд. 
[Cb cap]
+7.2 +4.1 81 +7  1023.5  2.8  693  271    +14.8     
18 28.03.20 300 (СЗ) н/о  в посл. час ливневой дождь  10/10 600 м кучево-дожд. 
[Cb cap]
+8 +0.3 58 +9  1023  -0.2  693  271    +1.4     
21 28.03.20 230 (ЮЗ) н/о    8/3 600 м кучево-дожд., средняя, верхняя 
[Cb cap|Ac trans|Ci sp]
+7.6 +0.6 61 +9  1023.1  -0.1  693  271           
00 29.03.20 250 (З) 1{05}  н/о    4/4 600 м кучево-дожд. 
[Cb cap]
+4.1 -2.1 64 +5  1025.8  1.2  694  276           
03 29.03.20 тихо ()   20000 м    ясно 
+5 -3.2 55 +5  1026.1  0.6  694  275           
06 29.03.20 тихо ()   20000 м    ясно 
+8.9 -4.1 40 +9  1023.7  -0.9  694  271  +2.2    0.0     
09 29.03.20 030 (СВ) 10 км    6/1 1000 м верхняя 
[Cu med, cong|Ci fib]
+10.8 -4.8 33 +12  1021.2  -1.6  692  269           
12 29.03.20 020 (С) 10 км    4/4 1000 м верхняя 
[Cu hum|Ci fib]
+9.7 -3.9 38 +11  1021.2  -0.3  692  270           
15 29.03.20 тихо ()   н/о    ясно 
+6.8 -4.9 43 +7  1022.8  0.5  693  273    +11.1       
18 29.03.20 тихо ()   н/о    ясно 
+2.6 -3 67 +3  1023.5  -0.8  692  276    +11.1       
21 29.03.20 тихо ()   н/о    ясно 
+1.1 -3.8 70 +1  1022.7  -1.2  691  278           
00 30.03.20 тихо () {05}  н/о    ясно 
+0.3 -4.1 72 1022.8  -0.3  691  278           
03 30.03.20 020 (С) 20000 м    ясно 
+3.3 -3.7 60 +4  1021.1  -0.4  691  275           
06 30.03.20 030 (СВ) 20000 м    ясно 
+8.9 -4.1 40 +10  1018.1  -0.9  690  270  -0.4         
09 30.03.20 360 (С) 10 км    ясно 
+13.9 -1.1 36 +15  1014.2  -1.8  689  264           
12 30.03.20 020 (С) 10 км    1/0 верхняя 
[Ci fib]
+14.1 -4.5 27 +15  1013.5  -0.7  688  264           
15 30.03.20 тихо ()   н/о    ясно 
+8.8 -3.1 43 +9  1016.1  0.6  689  269    +15.3       
Время (UTC), дата Ветер
(°,м/с) 
Видим.   Явления Облачность Т
(°С)
Тd
(°С)
f(%) Тe
(°С)
Pmin
(гПа)
dP
(гПа)
Po
(мм)
O2
(г/м3)
Тmin Tmax R s Состояние
почвы

Для получения пояснительной информации подведите курсор к названию столбца.

ПОГОДА Алматы - архив

Всё, что Вы хотите узнать о погоде Алматы - удобно и подробно!

Выберите нужную дату (начиная с 1 января 2019* года) и нажмите кнопку "Найти".
Будут отображены архивные сводки погоды по пункту Алматы, начиная с указанной даты.


Отображать данные в формате CSV (для использования в таблицах Excel)


Внимание! Наш архив погоды предназначен исключительно для личного некоммерческого использования в познавательных целях. Если Вам необходимы официальные справки о состоянии погоды (для производственных, юридических, коммерческих и т.п. целей), обращайтесь в органы Росгидромета.

*Примечание: данная дата относится к архиву по метеостанциям СССР (Россия, СНГ, Балтия).
Архив по метеостанциям Зарубежной Европы и Азии (кроме Китая) хранится 10 дней, по другим регионам земного шара (Китай, Африка, Америка, Австралия, Океания) - 1 день.

Алматы - район местоположения метеостанции


Название, широта, долгота, высота метеостанции:
Алматы (город) 43.2°ш. 76.9°д. 851 м над ур. моря [Казахстан]

Дополнительная информация

В oтличие oт бoльшинства пoгoдных сайтoв мы публикуем пoдрoбную метеoинфoрмацию в детальнoм прoфессиoнальнoм фoрмате.

Характеристики температуры и влажнoсти вoздуха измеряются на высoте 2 м в тени вдали oт зданий и деревьев.
Скoрoсть ветра измеряется на высoте 10 м (на урoвне рoста челoвека скoрoсть ветра ниже в 1.5-2 раза). Если метеoстанция нахoдится в гoрoде или в лесу, тo скoрoсть ветра занижена на 2-4 м/с пo сравнению с oткрытым местoм. Скoрoсть ветра над акватoриями крупных рек и oзёр, а также на вершинах хoлмoв на 2-5 м/с выше, чем в oбычных услoвиях.
Атмoсфернoе давление в разных тoчках местнoсти мoжет значительнo oтличаться oт давления на метеoстанции, в зависимoсти oт услoвий рельефа (при пoдъёме на 10 м давление пoнижается примернo на 1 мм рт.ст.).